Location: Godiavel Galaoual
(15.2485°N, 12.6604°W)
Time: 03:59:20
(UTC+00:00)

ISS - Pass Details

Date: 15 May 2021
Orbit: 417 x 422 km, 51.6° (Epoch: 22 June)

Event Time Altitude Azimuth Distance (km) Brightness Sun altitude
Rises 19:52:47 0° 229° (SW) 2,343 0.4 -9.9°
Reaches altitude 10° 19:54:56 10° 237° (WSW) 1,482 -0.5 -10.4°
Maximum altitude 19:58:05 41° 309° (NW) 616 -2.3 -11.1°
Drops below altitude 10° 20:01:16 10° 21° (NNE) 1,485 -0.9 -11.8°
Sets 20:03:26 0° 28° (NNE) 2,349 0.0 -12.3°
